Home   Weather   Fukuoka-shi   Past weeks
Flag for Japan

Past Weather in Fukuoka-shi, Japan — Yesterday and Last 2 Weeks

Currently: 57 °F. Clear. (Weather station: Fukuoka Airport, Japan). See more current weather

Past Weather in Fukuoka-shi — Graph

°F

Fukuoka-shi Temperature Yesterday

Maximum temperature yesterday: 64 °F (at 4:30 pm)
Minimum temperature yesterday: 54 °F (at 12:00 am)
Average temperature yesterday: 60 °F

High & Low Weather Summary for the Past Weeks

 TemperatureHumidityPressure
High82 °F (Apr 3, 1:30 pm)100% (Apr 4, 10:30 am)30.45 "Hg (Apr 4, 10:30 am)
Low43 °F (Apr 6, 2:30 am)11% (Apr 10, 6:00 pm)29.77 "Hg (Apr 4, 3:30 am)
Average59 °F62%30.06 "Hg
* Reported Apr 2 10:00 pm — Apr 17 10:30 pm, Fukuoka-shi. Weather by CustomWeather, © 2021

Note: Actual official high and low records may vary slightly from our data, if they occured in-between our weather recording intervals... More about our weather records

Fukuoka-shi Weather History for the Previous 24 Hours

Scroll right to see more
 ConditionsComfort  
Time TempWeatherWind HumidityBarometerVisibility
10:30 pm
Sat, Apr 17
57 °FPassing clouds.16 mph36%29.95 "HgN/A
10:00 pm57 °FPassing clouds.16 mph39%29.95 "HgN/A
9:30 pm59 °FPassing clouds.20 mph36%29.95 "HgN/A
9:00 pm59 °FPassing clouds.16 mph36%29.92 "HgN/A
8:30 pm59 °FPassing clouds.13 mph39%29.92 "HgN/A
8:00 pm59 °FPassing clouds.16 mph39%29.92 "HgN/A
7:30 pm59 °FPassing clouds.15 mph42%29.92 "HgN/A
7:00 pm59 °FPassing clouds.18 mph45%29.89 "HgN/A
6:43 pm61 °FPassing clouds.17 mph45%29.89 "HgN/A
6:30 pm61 °FScattered clouds.15 mph48%29.89 "HgN/A
6:09 pm61 °FPassing clouds.17 mph52%29.89 "HgN/A
5:30 pm63 °FPassing clouds.20 mph39%29.86 "HgN/A
5:00 pm64 °FScattered clouds.17 mph34%29.86 "HgN/A
4:41 pm64 °FScattered clouds.18 mph37%29.86 "HgN/A
4:30 pm64 °FScattered clouds.17 mph40%29.86 "HgN/A
4:00 pm64 °FBroken clouds.24 mph60%29.86 "HgN/A
3:30 pm68 °FScattered clouds.22 mph60%29.83 "HgN/A
3:00 pm70 °FBroken clouds.20 mph60%29.83 "HgN/A
2:30 pm70 °FBroken clouds.18 mph64%29.83 "HgN/A
2:00 pm68 °FBroken clouds.15 mph69%29.86 "HgN/A
1:30 pm68 °FBroken clouds.13 mph64%29.86 "HgN/A
1:00 pm68 °FBroken clouds.8 mph64%29.89 "HgN/A
12:30 pm68 °FBroken clouds.12 mph64%29.89 "HgN/A
12:00 pm68 °FPartly sunny.8 mph64%29.89 "HgN/A
11:30 am66 °FPartly sunny.18 mph68%29.89 "HgN/A
11:00 am64 °FPartly sunny.18 mph78%29.92 "HgN/A
10:30 am63 °FBroken clouds.17 mph88%29.92 "HgN/A
10:00 am59 °FBroken clouds.17 mph94%29.92 "HgN/A
9:30 am57 °FLight rain. Broken clouds.15 mph94%29.92 "HgN/A
9:00 am57 °FLight rain. Broken clouds.15 mph94%29.95 "HgN/A
8:30 am59 °FLight rain. Broken clouds.7 mph94%29.98 "HgN/A
8:00 am59 °FSprinkles. Broken clouds.13 mph88%29.98 "HgN/A
7:30 am59 °FSprinkles. Broken clouds.7 mph94%29.98 "HgN/A
7:00 am57 °FSprinkles. Broken clouds.10 mph94%29.98 "HgN/A
6:47 am57 °FSprinkles. Broken clouds.8 mph94%29.98 "Hg5 mi
6:30 am57 °FRain showers. Broken clouds.9 mph94%29.98 "Hg4 mi
6:00 am59 °FScattered showers. Broken clouds.10 mph82%29.95 "HgN/A
5:30 am59 °FPartly cloudy.14 mph82%29.95 "HgN/A
5:00 am59 °FPartly cloudy.9 mph82%29.95 "HgN/A
4:30 am59 °FMostly cloudy.12 mph88%29.95 "HgN/A
4:00 am59 °FMostly cloudy.7 mph82%29.95 "HgN/A
3:30 am61 °FOvercast.3 mph83%29.95 "HgN/A
3:00 am61 °FLight rain. Overcast.3 mph83%29.95 "HgN/A
2:30 am63 °FLight rain. Overcast.2 mph73%29.98 "HgN/A
2:00 am63 °FOvercast.2 mph68%29.98 "HgN/A
1:30 am63 °FOvercast.6 mph68%29.98 "HgN/A
1:00 am63 °FMostly cloudy.9 mph73%29.98 "HgN/A
12:30 am63 °FPartly cloudy.10 mph73%30.01 "HgN/A
12:00 am63 °FOvercast.7 mph73%30.01 "HgN/A
11:30 pm
Fri, Apr 16
63 °FPassing clouds.8 mph73%30.01 "HgN/A
11:00 pm63 °FPartly cloudy.8 mph73%30.01 "HgN/A
Weather by CustomWeather, © 2021

See weather overview